DW5861 Weather Reports


time (UTC)temp
F
wind
direction
speed
knots
gust
knots
rain 1hr
in
rain 24hr
in
rain mn
in
humidity
%
barometer
mb
20260502180503 73 17 1.7 4.3 0.00 0.22 0.01 54 1020.5
20260502170504 71 79 1.7 5.2 0.00 0.23 0.01 61 1021.0
20260502164004 70 332 1.7 5.2 0.00 0.24 0.01 63 1021.1
20260502163504 70 346 1.7 3.5 0.00 0.24 0.01 64 1021.2
20260502163011 70 12 1.7 4.3 0.00 0.25 0.01 61 1021.1
20260502162504 70 26 1.7 4.3 0.00 0.25 0.01 65 1021.1
20260502162025 70 48 1.7 4.3 0.00 0.25 0.01 61 1021.1
20260502161504 70 48 2.6 4.3 0.00 0.25 0.01 66 1021.1
20260502161004 69 33 1.7 4.3 0.01 0.25 0.01 65 1021.0
20260502160525 68 340 0.9 5.2 0.01 0.25 0.01 71 1021.1
20260502152003 66 31 1.7 5.2 0.01 0.27 0.01 73 1020.9
20260502151503 65 30 1.7 6.1 0.01 0.27 0.01 77 1021.0
20260502151003 65 28 1.7 6.1 0.00 0.27 0.00 78 1021.0
20260502150503 65 28 0.9 4.3 0.00 0.27 0.00 82 1020.9
20260502130503 51 74 0.0 2.6 0.00 0.43 0.00 96 1019.6
20260502123503 49 308 0.0 0.9 0.00 0.46 0.00 96 1019.2
20260502123003 49 350 0.0 0.9 0.00 0.47 0.00 96 1019.1
20260502122503 49 101 0.0 0.9 0.00 0.47 0.00 96 1019.1
20260502122003 49 43 0.0 0.9 0.00 0.48 0.00 96 1019.1
20260502121503 49 36 0.0 0.9 0.00 0.48 0.00 96 1019.1
20260502121004 49 111 0.0 0.9 0.00 0.49 0.00 96 1018.9
20260502120506 49 160 0.0 0.9 0.00 0.50 0.00 96 1018.8
20260502115503 49 208 0.0 0.9 0.00 0.52 0.00 96 1018.5
20260502115003 49 202 0.0 0.9 0.00 0.53 0.00 96 1018.4
20260502114503 49 136 0.0 0.9 0.00 0.55 0.00 96 1018.2
20260502114024 49 35 0.0 0.9 0.00 0.55 0.00 95 1018.2
20260502113503 49 22 0.0 0.9 0.00 0.56 0.00 96 1018.1
20260502113004 49 9 0.0 0.9 0.00 0.57 0.00 96 1018.1
20260502112503 49 350 0.0 0.9 0.00 0.57 0.00 95 1018.1
20260502112004 49 122 0.0 0.9 0.00 0.58 0.00 95 1018.2
20260502111503 49 137 0.0 0.9 0.00 0.59 0.00 96 1018.1
20260502111003 49 140 0.0 0.9 0.00 0.59 0.00 96 1017.9
20260502110503 50 258 0.0 0.9 0.00 0.60 0.00 96 1017.9
20260502110024 50 229 0.0 0.9 0.00 0.60 0.00 96 1017.9
20260502105510 50 219 0.0 0.9 0.00 0.60 0.00 96 1017.8
20260502105003 50 0 0.0 0.0 0.00 0.61 0.00 96 1017.8
20260502104503 50 198 0.0 0.9 0.00 0.61 0.00 96 1017.7
20260502104004 50 228 0.0 0.9 0.00 0.61 0.00 96 1017.6
20260502103503 50 247 0.0 0.9 0.00 0.61 0.00 96 1017.6
20260502103003 50 303 0.0 0.9 0.00 0.62 0.00 96 1017.5
20260502102503 50 17 0.0 0.9 0.00 0.62 0.00 96 1017.5
20260502101503 50 0 0.0 0.0 0.00 0.63 0.00 96 1017.4
20260502101003 51 0 0.0 0.0 0.00 0.64 0.00 96 1017.3
20260502100504 51 271 0.0 0.9 0.00 0.64 0.00 96 1017.3
20260502091503 52 339 0.0 1.7 0.00 0.65 0.00 96 1017.0
20260502091003 52 327 0.0 1.7 0.00 0.65 0.00 96 1017.1
20260502090524 52 313 0.0 1.7 0.00 0.65 0.00 96 1017.0
20260502071524 53 349 0.9 1.7 0.00 0.65 0.00 96 1016.7
20260502071003 53 346 0.9 1.7 0.00 0.65 0.00 96 1016.7
20260502070503 53 341 0.9 1.7 0.00 0.65 0.00 96 1016.7
20260502070003 53 333 0.9 1.7 0.00 0.65 0.00 96 1016.6
20260502065524 53 327 0.9 1.7 0.00 0.65 0.00 96 1016.5
20260502065003 53 326 0.9 1.7 0.00 0.65 0.00 96 1016.5
20260502064503 53 321 0.0 0.9 0.00 0.65 0.00 96 1016.5
20260502064024 53 335 0.9 1.7 0.00 0.65 0.00 96 1016.4
20260502063503 53 340 0.9 1.7 0.00 0.66 0.00 96 1016.4
20260502063003 53 330 0.9 1.7 0.00 0.66 0.00 96 1016.4
20260502062503 53 316 0.9 1.7 0.00 0.66 0.00 96 1016.5
20260502062024 53 324 0.9 1.7 0.00 0.66 0.00 96 1016.5
20260502061503 53 62 0.9 1.7 0.00 0.67 0.00 96 1016.4
20260502061003 53 144 0.0 1.7 0.00 0.67 0.00 95 1016.3
20260502060524 53 349 0.0 0.9 0.00 0.67 0.00 95 1016.5
20260502060003 53 324 0.0 0.9 0.00 0.67 0.00 95 1016.6
20260502055503 53 349 0.0 0.9 0.00 0.67 0.00 95 1016.6
20260502055003 53 322 0.0 0.9 0.00 0.67 0.00 95 1016.5
20260502054503 53 313 0.0 0.9 0.00 0.68 0.00 95 1016.6
20260502054003 53 323 0.0 0.9 0.00 0.68 0.00 96 1016.6
20260502053524 53 330 0.9 1.7 0.00 0.68 0.00 96 1016.6
20260502053003 53 333 0.9 1.7 0.00 0.68 0.00 96 1016.7
20260502052503 53 355 0.9 0.9 0.00 0.68 0.00 95 1016.7
20260502052024 53 1 0.0 0.9 0.00 0.68 0.00 96 1016.8
20260502051503 53 330 0.0 0.9 0.00 0.68 0.00 96 1016.9
20260502051003 53 321 0.0 0.9 0.00 0.68 0.00 96 1017.0
20260502050503 53 328 0.0 0.9 0.00 0.68 0.00 96 1016.9
20260502050003 53 333 0.0 0.9 0.00 0.68 0.00 96 1016.9
20260502045503 53 335 0.0 0.9 0.00 0.68 0.68 96 1016.9
20260502044503 53 317 0.0 1.7 0.00 0.68 0.68 96 1016.9
20260502044003 53 317 0.0 1.7 0.00 0.68 0.68 95 1016.9
20260502043503 53 261 0.0 1.7 0.00 0.68 0.68 95 1016.9
20260502043004 53 9 0.0 1.7 0.00 0.68 0.68 95 1017.0
20260502042504 53 351 0.0 1.7 0.00 0.68 0.68 95 1016.8
20260502042004 53 333 0.9 1.7 0.00 0.68 0.68 95 1016.8
20260502041525 53 334 0.9 1.7 0.00 0.68 0.68 95 1016.8
20260502041004 53 335 0.9 1.7 0.00 0.68 0.68 95 1016.8
20260502040504 53 330 0.9 1.7 0.00 0.68 0.68 96 1016.8
20260502040025 53 325 0.0 1.7 0.00 0.68 0.68 95 1016.7
20260502035504 53 338 0.9 1.7 0.00 0.68 0.68 95 1016.8
20260502035004 53 333 0.9 1.7 0.00 0.68 0.68 95 1016.7
20260502034504 53 318 0.0 1.7 0.00 0.68 0.68 95 1016.7
20260502034004 53 1 0.0 2.6 0.00 0.68 0.68 95 1016.5
20260502033525 52 7 0.9 2.6 0.00 0.68 0.68 95 1016.5
20260502033004 52 357 0.9 1.7 0.00 0.68 0.68 95 1016.6
20260502032504 52 332 0.9 1.7 0.00 0.68 0.68 95 1016.6
20260502032004 52 320 0.9 2.6 0.00 0.68 0.68 95 1016.6
20260502031504 52 348 0.9 2.6 0.00 0.68 0.68 95 1016.2
20260502031028 52 5 0.9 2.6 0.00 0.68 0.68 95 1015.8
20260502030504 52 9 0.9 1.7 0.01 0.69 0.68 95 1016.2
20260502030004 52 359 0.9 1.7 0.01 0.69 0.68 95 1016.4
20260502025504 52 350 0.9 1.7 0.01 0.69 0.68 95 1016.7
20260502025004 52 343 0.9 1.7 0.01 0.69 0.68 95 1016.6
20260502024504 52 323 0.9 1.7 0.01 0.69 0.68 95 1016.8
20260502024004 52 336 0.9 2.6 0.01 0.69 0.68 95 1016.8
20260502023504 52 331 0.9 2.6 0.01 0.69 0.68 95 1016.6
20260502023004 52 332 0.9 3.5 0.02 0.69 0.68 95 1016.5
20260502022504 52 339 1.7 3.5 0.02 0.69 0.68 95 1016.2
20260502022025 52 339 1.7 2.6 0.02 0.69 0.68 95 1016.0
20260502021504 52 347 1.7 6.1 0.02 0.69 0.68 95 1015.7
20260502021004 52 343 1.7 6.1 0.03 0.69 0.68 95 1015.6
20260502020504 52 330 1.7 3.5 0.02 0.68 0.67 95 1015.6
20260502020004 52 341 1.7 3.5 0.03 0.68 0.67 95 1015.5
20260502015504 53 355 1.7 2.6 0.03 0.68 0.67 95 1015.5
20260502015004 53 358 0.9 3.5 0.03 0.68 0.67 95 1015.6
20260502014504 53 355 0.9 3.5 0.03 0.68 0.67 95 1015.8
20260502014025 53 346 0.9 4.3 0.03 0.69 0.67 95 1015.8
20260502013504 53 344 0.9 4.3 0.04 0.69 0.67 95 1015.9
20260502013004 53 335 0.9 3.5 0.03 0.68 0.66 95 1016.0
20260502012504 53 319 0.9 2.6 0.04 0.68 0.66 95 1015.8
20260502012004 53 319 0.9 2.6 0.04 0.68 0.66 95 1015.6
20260502011504 53 343 1.7 5.2 0.04 0.68 0.66 95 1015.4
20260502011025 53 347 1.7 5.2 0.03 0.67 0.65 95 1015.2
20260502010504 53 337 1.7 4.3 0.03 0.67 0.65 95 1015.1
20260502010025 54 330 0.9 4.3 0.02 0.66 0.64 95 1014.9
20260502005504 54 343 0.9 2.6 0.02 0.66 0.64 95 1014.9
20260502005004 54 345 0.9 3.5 0.02 0.66 0.64 95 1014.8
20260502004504 54 323 0.9 3.5 0.02 0.66 0.64 95 1014.9
20260502004004 54 3 0.9 2.6 0.02 0.66 0.64 95 1014.8
20260502003504 54 15 1.7 4.3 0.01 0.65 0.63 95 1014.4
20260502003004 54 7 1.7 4.3 0.01 0.65 0.63 95 1014.4
20260502002504 54 349 0.9 2.6 0.01 0.64 0.62 95 1014.3
20260502002004 54 334 0.9 2.6 0.01 0.64 0.62 95 1014.2
20260502001525 54 334 0.9 3.5 0.01 0.64 0.62 95 1014.0
20260502001004 54 327 1.7 3.5 0.02 0.64 0.62 95 1013.8
20260502000504 54 357 1.7 5.2 0.04 0.64 0.62 95 1013.3
20260502000025 54 353 1.7 5.2 0.05 0.64 0.62 95 1012.8
20260501235504 54 350 1.7 4.3 0.05 0.64 0.62 95 1012.9
20260501235005 54 354 1.7 4.3 0.06 0.64 0.62 95 1012.8
20260501234504 54 356 1.7 7.0 0.07 0.64 0.62 95 1013.0
20260501234004 54 356 1.7 7.0 0.07 0.64 0.62 95 1012.9
20260501233504 55 337 0.9 3.5 0.07 0.64 0.62 95 1012.8
20260501233004 55 348 0.9 4.3 0.08 0.64 0.62 95 1013.0
20260501232504 55 356 0.9 4.3 0.07 0.63 0.61 95 1012.8
20260501232004 55 3 1.7 6.1 0.07 0.63 0.61 95 1012.8
20260501231504 54 18 1.7 6.1 0.08 0.63 0.61 95 1013.0
20260501231004 54 5 0.9 3.5 0.07 0.62 0.60 95 1013.5
20260501230525 55 346 0.9 3.5 0.05 0.60 0.58 95 1013.9
20260501230025 55 347 0.9 3.5 0.04 0.59 0.58 95 1014.0
20260501225526 54 350 1.7 3.5 0.04 0.59 0.57 95 1013.8
20260501225004 55 5 1.7 3.5 0.03 0.58 0.56 95 1013.6
20260501224505 55 352 1.7 3.5 0.02 0.57 0.55 95 1013.7
20260501224004 55 344 1.7 3.5 0.03 0.57 0.55 95 1013.6
20260501223504 55 354 0.9 3.5 0.03 0.57 0.55 95 1013.7
20260501223004 55 349 0.9 3.5 0.02 0.56 0.54 95 1013.8
20260501222504 55 359 0.9 5.2 0.02 0.56 0.54 95 1013.8
20260501222004 55 352 1.7 5.2 0.03 0.56 0.54 94 1013.7
20260501221504 55 343 1.7 4.3 0.03 0.55 0.53 95 1013.4
20260501221004 55 8 1.7 6.1 0.04 0.55 0.53 95 1013.2
20260501220504 55 7 2.6 6.1 0.04 0.55 0.53 95 1013.0
20260501220004 55 352 1.7 5.2 0.05 0.55 0.53 95 1012.9
20260501215525 55 345 1.7 3.5 0.05 0.55 0.53 94 1012.8
20260501215004 55 8 1.7 7.0 0.05 0.55 0.53 94 1012.8
20260501214504 55 17 1.7 7.0 0.05 0.55 0.53 94 1012.5
20260501214004 55 14 1.7 5.2 0.05 0.54 0.52 94 1012.8
20260501213504 55 17 1.7 5.2 0.05 0.54 0.52 94 1012.7
20260501213025 55 11 1.7 4.3 0.05 0.54 0.52 94 1012.8
20260501212525 55 358 1.7 4.3 0.05 0.54 0.52 94 1013.0
20260501212004 55 347 1.7 3.5 0.04 0.53 0.51 94 1013.1
20260501211504 55 343 0.9 3.5 0.03 0.52 0.50 94 1013.0
20260501211007 55 348 0.9 3.5 0.02 0.51 0.49 94 1013.0
20260501210504 55 355 0.9 2.6 0.02 0.51 0.49 94 1013.1
20260501210004 55 350 1.7 2.6 0.01 0.50 0.48 94 1013.3
20260501205504 55 349 1.7 3.5 0.01 0.50 0.48 94 1013.2
20260501205004 55 341 0.9 3.5 0.01 0.50 0.48 93 1013.4
20260501204526 55 336 1.7 3.5 0.01 0.50 0.48 93 1013.4
20260501204004 55 344 1.7 3.5 0.00 0.49 0.47 93 1013.0
20260501203504 55 338 1.7 3.5 0.00 0.49 0.47 93 1012.8
20260501203004 55 354 1.7 6.1 0.00 0.49 0.47 93 1012.7
20260501202504 55 1 1.7 6.1 0.00 0.49 0.47 94 1012.7
20260501202025 55 349 1.7 7.0 0.00 0.49 0.47 93 1012.7
20260501201504 56 345 1.7 7.0 0.00 0.49 0.47 94 1012.6
20260501201004 56 351 1.7 3.5 0.00 0.49 0.47 93 1012.7
20260501200504 56 3 1.7 5.2 0.00 0.49 0.47 94 1012.3
20260501200004 56 359 1.7 5.2 0.00 0.49 0.47 94 1012.0
20260501195504 56 351 1.7 6.1 0.00 0.49 0.47 94 1012.2
20260501195004 56 4 2.6 8.7 0.00 0.49 0.47 94 1011.5
20260501194504 56 14 2.6 8.7 0.00 0.49 0.47 94 1011.1
20260501194004 56 18 2.6 7.8 0.00 0.49 0.47 94 1011.0
20260501193504 56 18 1.7 7.8 0.00 0.50 0.47 94 1011.1
20260501193004 57 20 2.6 7.8 0.00 0.50 0.47 95 1011.1
20260501192504 57 7 2.6 7.8 0.00 0.50 0.47 95 1011.1
20260501192004 57 5 2.6 9.6 0.00 0.50 0.47 95 1011.1
20260501191504 57 23 2.6 9.6 0.00 0.50 0.47 95 1010.5
20260501191004 57 18 2.6 7.8 0.00 0.50 0.47 95 1010.4
20260501190504 57 12 2.6 7.8 0.00 0.50 0.47 95 1010.5
20260501190025 57 19 2.6 7.8 0.00 0.50 0.47 95 1010.1
20260501185504 57 15 2.6 7.8 0.00 0.50 0.47 95 1010.2
20260501185025 57 9 2.6 8.7 0.00 0.50 0.47 95 1010.8
20260501184504 57 15 2.6 8.7 0.00 0.50 0.47 96 1011.3
20260501184004 57 19 1.7 6.1 0.00 0.50 0.47 96 1011.7
20260501183505 57 13 1.7 4.3 0.00 0.50 0.47 96 1012.1
20260501183025 57 6 1.7 5.2 0.00 0.50 0.47 95 1012.3
20260501182504 57 6 1.7 7.8 0.01 0.50 0.47 95 1012.6
20260501182004 57 356 1.7 7.8 0.01 0.50 0.47 95 1012.8
20260501181504 57 342 1.7 4.3 0.01 0.51 0.47 96 1013.1
20260501181004 57 347 1.7 4.3 0.01 0.52 0.47 96 1013.2